Weather History for PANN - August, 2013

Change the Weather History Date:

Saturday, August 3, 2013

  Actual Average (PAFA) Record (PAFA)
Temperature  
Mean Temperature 66 °F 60 °F  
Max Temperature 80 °F 69 °F 87 °F (1919)
Min Temperature 54 °F 50 °F 32 °F (1944)
Degree Days  
Heating Degree Days 0 6  
Month to date heating degree days 17  
Since 1 June heating degree days 285  
Since 1 July heating degree days 125  
Cooling Degree Days 2 0  
Month to date cooling degree days 0  
Year to date cooling degree days 55  
Since 1 June cooling degree days 54  
Growing Degree Days 16 (Base 50)    
Moisture  
Dew Point 46 °F    
Average Humidity 51    
Maximum Humidity 90    
Minimum Humidity 26    
Precipitation  
Precipitation 0.00 in 0.07 in 0.63 in (1942)
Month to date precipitation 0.21  
Year to date precipitation 5.90  
Snow  
Snow 0.00 in 0.00 in 0.00 in (2002)
Month to date snowfall 0.0  
Since 1 June snowfall 0.0  
Since 1 July snowfall 0.0  
Snow Depth -    
Sea Level Pressure  
Sea Level Pressure 29.68 in    
Wind  
Wind Speed 7 mph (SE)    
Max Wind Speed 24 mph    
Max Gust Speed 34 mph    
Visibility 10 miles    
Events      
T = Trace of Precipitation, MM = Missing Value Source: NWS Daily Summary

Daily Weather History Graph

Daily Weather History Graph

Search for Another Location

Airport or City:

Trip Planner

Search our weather history database for the weather conditions in past years. The results will help you decide how hot, cold, wet, or windy it might be!

Date:

Astronomy

Aug. 03, 2013 Rise Set
Actual Time 5:07 AM AKDT 10:55 PM AKDT
Civil Twilight 3:38 AM AKDT 12:20 AM AKDT
Nautical Twilight Sun does not rise Sun does not rise
Astronomical Twilight Sun does not rise Sun does not rise
Moon 2:07 AM AKDT (8/3) 8:53 PM AKDT (8/3)
Length of Visible Light 20h 41m
Length of Day
17h 48m
Waning Crescent, 9% of the Moon is Illuminated
Aug 3
Waning Crescent
Aug 6
New
Aug 14
First Quarter
Aug 20
Full
Aug 28
Last Quarter

Hourly Weather History & Observations

Time (AKDT) Temp. Dew Point Humidity Pressure Visibility Wind Dir Wind Speed Gust Speed Precip Events Conditions
12:53 AM 61.0 °F 53.1 °F 75% 29.68 in 10.0 mi Calm Calm - N/A   Clear
1:53 AM 59.0 °F 50.0 °F 72% 29.69 in 10.0 mi Calm Calm - N/A   Clear
2:53 AM 59.0 °F 50.0 °F 72% 29.67 in 10.0 mi Calm Calm - N/A   Clear
3:53 AM 55.9 °F 50.0 °F 80% 29.66 in 10.0 mi Calm Calm - N/A   Clear
4:53 AM 55.9 °F 48.9 °F 77% 29.65 in 10.0 mi ESE 5.8 mph - N/A   Clear
5:53 AM 60.1 °F 46.9 °F 62% 29.64 in 10.0 mi SE 6.9 mph - N/A   Clear
6:53 AM 57.9 °F 48.0 °F 70% 29.62 in 10.0 mi East 5.8 mph - N/A   Clear
7:53 AM 57.9 °F 46.9 °F 67% 29.63 in 10.0 mi SE 5.8 mph - N/A   Clear
8:53 AM 59.0 °F 46.9 °F 64% 29.64 in 10.0 mi East 4.6 mph - N/A   Partly Cloudy
9:53 AM 61.0 °F 46.0 °F 58% 29.64 in 10.0 mi East 8.1 mph - N/A   Partly Cloudy
10:53 AM 64.9 °F 48.0 °F 54% 29.65 in 10.0 mi East 10.4 mph - N/A   Scattered Clouds
11:53 AM 73.0 °F 44.1 °F 35% 29.64 in 10.0 mi SE 12.7 mph 17.3 mph N/A   Clear
12:53 PM 75.9 °F 43.0 °F 31% 29.61 in 10.0 mi ENE 10.4 mph - N/A   Clear
1:34 PM 78.8 °F 42.8 °F 28% 29.60 in 10.0 mi SSE 13.8 mph 25.3 mph N/A   Clear
1:53 PM 79.0 °F 42.1 °F 27% 29.61 in 10.0 mi South 19.6 mph 33.4 mph N/A   Clear
2:53 PM 79.0 °F 41.0 °F 26% 29.61 in 10.0 mi SSE 24.2 mph 34.5 mph N/A   Clear
3:53 PM 79.0 °F 43.0 °F 28% 29.62 in 10.0 mi SSE 20.7 mph 31.1 mph N/A   Clear
4:53 PM 78.1 °F 43.0 °F 29% 29.61 in 10.0 mi South 21.9 mph 33.4 mph N/A   Clear
5:53 PM 77.0 °F 44.1 °F 31% 29.62 in 10.0 mi South 24.2 mph 33.4 mph N/A   Clear
6:53 PM 73.9 °F 46.0 °F 37% 29.62 in 10.0 mi SE 19.6 mph 28.8 mph N/A   Clear
7:53 PM 73.9 °F 41.0 °F 30% 29.62 in 10.0 mi SSE 17.3 mph 34.5 mph N/A   Clear
8:53 PM 72.0 °F 41.0 °F 33% 29.63 in 10.0 mi South 15.0 mph 26.5 mph N/A   Clear
9:53 PM 69.1 °F 42.1 °F 38% 29.65 in 10.0 mi SSE 11.5 mph - N/A   Clear
10:53 PM 69.1 °F 39.9 °F 35% 29.68 in 10.0 mi SSW 12.7 mph 31.1 mph N/A   Clear
11:53 PM 66.0 °F 48.0 °F 52% 29.72 in 7.0 mi WSW 8.1 mph - N/A   Overcast